Regional Weather Roundup
Issued by NWS Newport/Morehead, NC

Home | Current Version | Previous Version | Text Only | Print | Product List | Glossary On
Versions: 1 2 3 4 5 6 7 8 9 10 11 12 13 14 15 16 17 18 19 20 21 22 23 24 25 26 27 28 29 30 31 32 33 34 35 36 37 38 39 40 41 42 43 44 45 46 47 48 49 50
000
ASUS42 KMHX 162025
RWRMHX
WEATHER ROUNDUP FOR EASTERN NORTH CAROLINA
NATIONAL WEATHER SERVICE NEWPORT/MOREHEAD CITY NC
300 PM EST SAT DEC 16 2017

NOTE: "FAIR" INDICATES FEW OR NO CLOUDS BELOW 12,000 FEET
WITH NO SIGNIFICANT WEATHER AND/OR OBSTRUCTIONS TO VISIBILITY

NCZ015>017-031-032-045>047-102-103-162100-
NORTH COAST

CITY           SKY/WX    TMP DP  RH WIND       PRES   REMARKS
EDENTON        SUNNY     47  25  41 SW5       30.20F
ELIZABETH CITY SUNNY     46  27  47 SW8       30.19S
KITTY HAWK     CLEAR     43  18  36 CALM      30.19S
MANTEO         SUNNY     44  22  41 NW3       30.20F

$$

NCZ045>047-081-094-103-104-162100-
CENTRAL COAST

CITY           SKY/WX    TMP DP  RH WIND       PRES   REMARKS
FRISCO         SUNNY     44  25  47 W7        30.23R

$$

NCZ095-097-098-100-101-162100-
SOUTHERN COAST

CITY           SKY/WX    TMP DP  RH WIND       PRES   REMARKS
BEAUFORT       SUNNY     46  28  49 SW7       30.22F
CEDAR ISLAND   NOT AVBL
JACKSONVILLE   SUNNY     50  25  37 W6        30.22S
PINEY ISLAND     N/A    N/A N/A N/A W9        30.22S
WILMINGTON     SUNNY     53  24  32 W6        30.23F


$$

NCZ011>013-027>030-043-044-078>080-089-090>093-098-162100-
COASTAL PLAIN

CITY           SKY/WX    TMP DP  RH WIND       PRES   REMARKS
AHOSKIE        SUNNY     47  23  39 CALM      30.18F
CLINTON        SUNNY     50  26  39 W3        30.23R
ELIZABETHTOWN  NOT AVBL
GOLDSBORO      SUNNY     51  23  33 SW3       30.20S
GREENVILLE     SUNNY     50  25  37 W6        30.22S
HAVELOCK       SUNNY     50  26  39 W8        30.23S
KENANSVILLE    SUNNY     50  25  37 W5        30.23R
KINSTON        SUNNY     50  23  34 S3        30.22S
NEW BERN       SUNNY     49  25  39 W7        30.22F
RICHLANDS      SUNNY     50  25  37 VRB5      30.22F
ROCKY MOUNT    SUNNY     48  24  39 SW6       30.20F
WASHINGTON     SUNNY     49  23  35 W3        30.21S
WHITEVILLE     SUNNY     51  25  35 W3        30.23S

$$

AMZ130-135-150-152-154-156-158-170-250-252-270-ANZ085-086-088-633-658-670-162100-
MARINE OBSERVATIONS

STATION/POSITION TIME  TEMP    WIND        PRES    WAVE   SWELL
                       AIR SEA DIR/SP/G            HT/PER HT/PER
                 (UTC) (F)     (DEG/KT/KT) (MB)    (FT/S) (FT/S)
CHESAPEAKE LIGHT NOT AVBL
64 E VA BEACH    1950   45 58  250/  8/ 12 1022.2    3/ 6   3/ 6
DUCK             2000   44 52  240/  7/ 10 1021.9
2 E DUCK         2000      54                N/A     2/ 7
OREGON INLET     2000   44 48  210/  4/  4 1022.4
13E OREGON INLT  1948      58                N/A     3/ 7   3/ 7
HATTERAS CG      2000   42 52  280/  7/  9 1023.3
DIAMOND BUOY     2010   46 73  280/ 10/ 16 1023.6
CAPE LOOKOUT     2000          260/  7/  9 1023.8
BEAUFORT LAB     2000   47 49  230/  3/  7 1023.3
30 SE NEW RVR IN 2008   47 64  300/  6/ 10 1024.0
30 SE NEW RVR IN 2000      64                N/A     2/ 7
27 SE WRIGHTSVLE 2008   47 63  250/  4/  8 1024.1
5 SE WRIGHTSVLE  2008   47 56  210/  6/ 10 1023.6
225 S CAPE HAT   1950   62 74  340/  8/ 12 1022.4    6/ 7   7/ 7
41 SE CHARLESTON 2010   55 72   60/  6/  8 1023.9

$$




USA.gov is the U.S. government's official web portal to all federal, state and local government web resources and services.